Big Bear Station Historical Data
Daily Summary for September 7, 2017 Units:  English    Metric   Both
« Previous Day
Next Day »
Daily Weekly Monthly Yearly Custom
  High: Low: Average:
Temperature: 81.1 °F 49.8 °F 63.7 °F
Dew Point: 48.1 °F 32.9 °F 42.8 °F
Humidity: 81 % 27 % 51 %
Wind Speed: 8.9 mph 0.0 mph 1.4 mph
Wind Gust: -999.0 mph - -
Wind:- - SW
Pressure: 30.29 in 30.21 in -
Precipitation: 0.00 in    
Historical Graphs
 
 
Tabular Data for September 7, 2017
Time Temperature Dew Point Pressure Wind Wind Speed Wind Gust Humidity Rainfall Rate (Hourly)
00:00 55.8 °F 44.6 °F 30.29 in Calm   -999.0 mph 66 % 0 in
00:15 55.4 °F 44.6 °F 30.29 in Calm   -999.0 mph 67 % 0 in
00:30 55.2 °F 45.6 °F 30.29 in South 1.1 mph -999.0 mph 70 % 0 in
00:45 54.7 °F 45.1 °F 30.29 in Calm   -999.0 mph 70 % 0 in
01:01 54.1 °F 44.5 °F 30.28 in Calm   -999.0 mph 70 % 0 in
01:16 54.1 °F 46.7 °F 30.28 in Calm   -999.0 mph 76 % 0 in
01:31 54.3 °F 47.6 °F 30.28 in Calm   -999.0 mph 78 % 0 in
01:47 53.8 °F 48.1 °F 30.28 in Calm   -999.0 mph 81 % 0 in
02:02 53.6 °F 47.9 °F 30.28 in Calm   -999.0 mph 81 % 0 in
02:17 53.6 °F 47.6 °F 30.28 in Calm   -999.0 mph 80 % 0 in
02:33 53.4 °F 45.3 °F 30.27 in South 2.2 mph -999.0 mph 74 % 0 in
02:48 53.1 °F 45.4 °F 30.27 in SSE 1.1 mph -999.0 mph 75 % 0 in
03:03 52.9 °F 45.5 °F 30.27 in Calm   -999.0 mph 76 % 0 in
03:18 52.5 °F 44.8 °F 30.27 in Calm   -999.0 mph 75 % 0 in
03:33 52.3 °F 44.3 °F 30.27 in Calm   -999.0 mph 74 % 0 in
03:49 52.0 °F 42.5 °F 30.27 in Calm   -999.0 mph 70 % 0 in
04:04 51.8 °F 42.0 °F 30.27 in Calm   -999.0 mph 69 % 0 in
04:19 51.6 °F 42.9 °F 30.27 in Calm   -999.0 mph 72 % 0 in
04:34 51.4 °F 42.7 °F 30.27 in Calm   -999.0 mph 72 % 0 in
04:49 51.3 °F 44.0 °F 30.27 in Calm   -999.0 mph 76 % 0 in
05:05 51.1 °F 43.5 °F 30.27 in Calm   -999.0 mph 75 % 0 in
05:20 50.9 °F 43.3 °F 30.27 in Calm   -999.0 mph 75 % 0 in
05:35 50.5 °F 43.9 °F 30.27 in Calm   -999.0 mph 78 % 0 in
05:50 50.5 °F 44.9 °F 30.27 in Calm   -999.0 mph 81 % 0 in
06:05 50.4 °F 44.8 °F 30.27 in Calm   -999.0 mph 81 % 0 in
06:21 50.2 °F 44.3 °F 30.27 in Calm   -999.0 mph 80 % 0 in
06:36 50.0 °F 43.7 °F 30.27 in Calm   -999.0 mph 79 % 0 in
06:51 50.0 °F 42.4 °F 30.27 in Calm   -999.0 mph 75 % 0 in
07:06 49.8 °F 40.8 °F 30.27 in Calm   -999.0 mph 71 % 0 in
07:21 50.2 °F 40.8 °F 30.27 in Calm   -999.0 mph 70 % 0 in
07:37 50.9 °F 40.7 °F 30.28 in Calm   -999.0 mph 68 % 0 in
07:52 51.1 °F 42.4 °F 30.27 in Calm   -999.0 mph 72 % 0 in
08:07 51.6 °F 43.6 °F 30.27 in Calm   -999.0 mph 74 % 0 in
08:22 53.1 °F 42.8 °F 30.27 in Calm   -999.0 mph 68 % 0 in
08:38 58.8 °F 45.4 °F 30.27 in Calm   -999.0 mph 61 % 0 in
08:53 59.4 °F 46.4 °F 30.27 in Calm   -999.0 mph 62 % 0 in
09:08 60.8 °F 45.0 °F 30.27 in Calm   -999.0 mph 56 % 0 in
09:23 62.6 °F 45.7 °F 30.28 in Calm   -999.0 mph 54 % 0 in
09:38 64.8 °F 43.5 °F 30.28 in Calm   -999.0 mph 46 % 0 in
09:54 68.0 °F 42.1 °F 30.28 in WNW 3.2 mph -999.0 mph 39 % 0 in
10:09 70.3 °F 43.5 °F 30.28 in NW 3.2 mph -999.0 mph 38 % 0 in
10:24 71.4 °F 42.3 °F 30.28 in NW 5.8 mph -999.0 mph 35 % 0 in
10:39 72.7 °F 44.2 °F 30.28 in NNE 2.2 mph -999.0 mph 36 % 0 in
10:54 75.2 °F 44.1 °F 30.28 in ENE 3.7 mph -999.0 mph 33 % 0 in
11:10 76.8 °F 44.7 °F 30.28 in Calm   -999.0 mph 32 % 0 in
11:25 77.9 °F 45.7 °F 30.28 in SSW 2.2 mph -999.0 mph 32 % 0 in
11:40 78.1 °F 45.0 °F 30.28 in NNW 4.2 mph -999.0 mph 31 % 0 in
11:55 78.3 °F 46.0 °F 30.28 in NNW 4.7 mph -999.0 mph 32 % 0 in
12:10 78.8 °F 43.9 °F 30.28 in SW 5.3 mph -999.0 mph 29 % 0 in
12:26 78.6 °F 45.4 °F 30.27 in WNW 4.7 mph -999.0 mph 31 % 0 in
12:41 78.8 °F 43.9 °F 30.27 in WNW 4.7 mph -999.0 mph 29 % 0 in
12:56 79.5 °F 45.4 °F 30.27 in NNW 2.7 mph -999.0 mph 30 % 0 in
13:12 80.2 °F 44.1 °F 30.26 in West 3.2 mph -999.0 mph 28 % 0 in
13:27 80.4 °F 43.4 °F 30.26 in NNW 8.9 mph -999.0 mph 27 % 0 in
13:43 80.6 °F 45.4 °F 30.26 in WNW 5.3 mph -999.0 mph 29 % 0 in
13:58 81.1 °F 44.9 °F 30.26 in NNW 4.2 mph -999.0 mph 28 % 0 in
14:13 79.5 °F 44.5 °F 30.25 in West 2.2 mph -999.0 mph 29 % 0 in
14:29 79.5 °F 44.5 °F 30.25 in SE 5.8 mph -999.0 mph 29 % 0 in
14:44 79.9 °F 43.9 °F 30.24 in WNW 3.2 mph -999.0 mph 28 % 0 in
14:59 78.8 °F 45.6 °F 30.23 in ENE 4.2 mph -999.0 mph 31 % 0 in
15:14 78.1 °F 44.1 °F 30.23 in West 2.2 mph -999.0 mph 30 % 0 in
15:29 76.3 °F 42.6 °F 30.23 in North 2.2 mph -999.0 mph 30 % 0 in
15:45 76.8 °F 43.0 °F 30.22 in South 4.7 mph -999.0 mph 30 % 0 in
16:00 75.4 °F 43.5 °F 30.22 in SSE 5.3 mph -999.0 mph 32 % 0 in
16:15 76.6 °F 43.7 °F 30.22 in ESE 5.3 mph -999.0 mph 31 % 0 in
16:31 75.0 °F 44.0 °F 30.22 in NE 2.2 mph -999.0 mph 33 % 0 in
16:46 77.7 °F 43.8 °F 30.21 in East 4.2 mph -999.0 mph 30 % 0 in
17:01 78.4 °F 42.6 °F 30.21 in South 3.2 mph -999.0 mph 28 % 0 in
17:16 79.0 °F 43.1 °F 30.21 in NE 3.2 mph -999.0 mph 28 % 0 in
17:31 76.3 °F 41.7 °F 30.21 in South 4.2 mph -999.0 mph 29 % 0 in
17:47 74.5 °F 40.2 °F 30.21 in SSW 1.1 mph -999.0 mph 29 % 0 in
18:02 73.6 °F 38.5 °F 30.21 in NW 2.2 mph -999.0 mph 28 % 0 in
18:17 70.9 °F 37.1 °F 30.21 in North 2.2 mph -999.0 mph 29 % 0 in
18:32 70.0 °F 36.3 °F 30.21 in Calm   -999.0 mph 29 % 0 in
18:48 68.7 °F 35.2 °F 30.21 in Calm   -999.0 mph 29 % 0 in
19:03 67.3 °F 34.8 °F 30.21 in Calm   -999.0 mph 30 % 0 in
19:18 66.0 °F 34.5 °F 30.21 in Calm   -999.0 mph 31 % 0 in
19:33 64.8 °F 36.5 °F 30.21 in Calm   -999.0 mph 35 % 0 in
19:49 63.7 °F 34.0 °F 30.21 in Calm   -999.0 mph 33 % 0 in
20:04 62.4 °F 32.9 °F 30.21 in Calm   -999.0 mph 33 % 0 in
20:19 61.5 °F 34.3 °F 30.22 in South 2.2 mph -999.0 mph 36 % 0 in
20:34 60.8 °F 34.4 °F 30.22 in SSW 1.7 mph -999.0 mph 37 % 0 in
20:49 60.1 °F 36.3 °F 30.22 in Calm   -999.0 mph 41 % 0 in
21:05 59.7 °F 37.7 °F 30.21 in Calm   -999.0 mph 44 % 0 in
21:20 59.4 °F 39.7 °F 30.22 in Calm   -999.0 mph 48 % 0 in
21:36 59.5 °F 41.4 °F 30.22 in Calm   -999.0 mph 51 % 0 in
21:51 59.5 °F 41.4 °F 30.22 in Calm   -999.0 mph 51 % 0 in
22:06 59.2 °F 41.6 °F 30.22 in Calm   -999.0 mph 52 % 0 in
22:21 59.2 °F 42.1 °F 30.22 in South 1.7 mph -999.0 mph 53 % 0 in
22:36 59.2 °F 42.6 °F 30.23 in Calm   -999.0 mph 54 % 0 in
22:52 59.7 °F 42.5 °F 30.23 in Calm   -999.0 mph 53 % 0 in
23:07 59.4 °F 42.3 °F 30.23 in Calm   -999.0 mph 53 % 0 in
23:22 59.2 °F 43.0 °F 30.23 in Calm   -999.0 mph 55 % 0 in
23:37 59.2 °F 44.9 °F 30.23 in Calm   -999.0 mph 59 % 0 in
23:52 58.8 °F 44.9 °F 30.22 in South 1.7 mph -999.0 mph 60 % 0 in
Big Bear CA Weather
Compliments of Weather Underground - 1.5 mb